Location: Delettes
(50.6178°N, 2.2123°E)
Time: 00:30:36
(UTC+00:00)

Cosmos 192 - Pass Details

Date: 27 February 2020
Orbit: 701 x 713 km, 74.0° (Epoch: 04 April)

Event Time Altitude Azimuth Distance (km) Brightness Sun altitude
Rises 18:45:15 0° 192° (SSW) 3,080 7.8 -13.0°
Reaches altitude 10° 18:47:35 10° 189° (S) 2,165 6.9 -13.3°
Maximum altitude 18:52:23 61° 109° (ESE) 796 4.3 -14.1°
Drops below altitude 10° 18:57:14 10° 30° (NNE) 2,178 6.6 -14.9°
Sets 18:59:34 0° 27° (NNE) 3,101 7.4 -15.2°
